FW5449 Weather Reports


Display with metric or nautical units.
time (UTC)temp
F
wind
direction
speed
MPH
gust
MPH
rain 1hr
in
rain 24hr
in
rain mn
in
humidity
%
barometer
mb
20260905195913 72 352 2.0 7.0 0.00 0.39 0.02 64 1015.7
20260905195409 72 325 2.0 7.0 0.00 0.40 0.02 62 1015.7
20260905194907 72 238 2.0 8.0 0.00 0.40 0.02 60 1015.8
20260905194403 72 250 2.0 8.0 0.00 0.40 0.02 61 1015.9
20260905193906 71 328 2.0 5.0 0.00 0.40 0.02 64 1016.0
20260905193353 71 124 2.0 7.0 0.00 0.40 0.02 63 1016.2
20260905192839 70 166 2.0 6.0 0.00 0.40 0.02 62 1016.1
20260905191839 69 131 2.0 5.0 0.00 0.40 0.02 64 1016.3
20260905191335 69 241 1.0 4.0 0.00 0.40 0.02 66 1016.2
20260905190823 69 198 2.0 5.0 0.00 0.40 0.02 68 1016.2
20260905190322 68 310 3.0 5.0 0.00 0.40 0.02 69 1016.3
20260905185819 68 308 2.0 5.0 0.00 0.40 0.02 72 1016.3
20260905185543 68 281 1.0 5.0 0.00 0.40 0.02 71 1016.3
20260905184817 68 295 1.0 4.0 0.00 0.40 0.02 73 1016.3
20260905184538 67 27 1.0 4.0 0.00 0.40 0.02 71 1016.4
20260905183811 67 105 1.0 4.0 0.00 0.40 0.02 72 1016.4
20260905183307 67 266 1.0 3.0 0.00 0.40 0.02 75 1016.4
20260905182809 66 123 1.0 6.0 0.00 0.40 0.02 75 1016.4
20260905182309 66 99 1.0 6.0 0.00 0.40 0.02 75 1016.4
20260905181804 65 33 2.0 8.0 0.00 0.40 0.02 79 1016.5
20260905181525 65 33 3.0 8.0 0.00 0.40 0.02 75 1016.5
20260905180800 66 240 1.0 5.0 0.00 0.40 0.02 76 1016.5
20260905180258 65 69 1.0 4.0 0.00 0.40 0.02 78 1016.4
20260905180025 65 335 1.0 4.0 0.00 0.40 0.02 79 1016.4
20260905175252 64 317 1.0 3.0 0.00 0.40 0.02 78 1016.5
20260905174747 64 48 2.0 8.0 0.00 0.40 0.02 79 1016.6
20260905174244 64 341 2.0 8.0 0.00 0.40 0.02 81 1016.7
20260905173737 64 299 1.0 4.0 0.00 0.40 0.02 79 1016.7
20260905173236 64 270 1.0 4.0 0.00 0.40 0.02 79 1016.7
20260905172954 64 255 1.0 3.0 0.00 0.40 0.02 77 1016.7
20260905172234 64 205 1.0 3.0 0.00 0.41 0.02 77 1016.7
20260905171728 64 205 1.0 3.0 0.00 0.41 0.02 78 1016.6
20260905171711 64 251 1.0 3.0 0.00 0.41 0.02 78 1016.7
20260905170727 63 167 2.0 5.0 0.00 0.41 0.02 78 1016.5
20260905170226 63 128 2.0 6.0 0.00 0.41 0.02 80 1016.6
20260905165721 62 129 2.0 6.0 0.00 0.41 0.02 81 1016.6
20260905165220 62 149 3.0 7.0 0.00 0.41 0.02 83 1016.5
20260905164722 61 158 4.0 7.0 0.00 0.42 0.02 83 1016.4
20260905164212 61 148 3.0 7.0 0.00 0.42 0.02 84 1016.4
20260905163708 60 141 3.0 9.0 0.00 0.43 0.02 84 1016.3
20260905163210 60 116 4.0 9.0 0.00 0.44 0.02 85 1016.4
20260905162708 59 104 4.0 9.0 0.00 0.45 0.02 87 1016.3
20260905162209 59 156 4.0 8.0 0.00 0.46 0.02 87 1016.4
20260905161708 58 176 5.0 8.0 0.00 0.47 0.02 87 1016.4
20260905161206 58 102 5.0 8.0 0.00 0.49 0.02 88 1016.3
20260905160708 58 97 5.0 9.0 0.00 0.50 0.02 89 1016.4
20260905160205 57 81 5.0 11.0 0.00 0.50 0.02 89 1016.4
20260905155705 57 85 4.0 11.0 0.00 0.50 0.02 91 1016.5
20260905155204 57 106 3.0 7.0 0.00 0.50 0.02 90 1016.5
20260905154931 56 121 3.0 8.0 0.00 0.51 0.02 90 1016.6
20260905154206 56 120 4.0 8.0 0.00 0.51 0.02 91 1016.5
20260905153702 56 85 4.0 9.0 0.00 0.51 0.02 91 1016.6
20260905153201 56 109 3.0 9.0 0.00 0.51 0.02 91 1016.7
20260905152707 55 130 4.0 8.0 0.00 0.51 0.02 92 1016.7
20260905152702 56 101 3.0 8.0 0.00 0.51 0.02 92 1016.7
20260905151700 55 146 3.0 7.0 0.00 0.51 0.02 93 1016.7
20260905151201 55 124 3.0 7.0 0.00 0.51 0.02 93 1016.7
20260905150658 55 124 2.0 6.0 0.00 0.51 0.02 94 1016.8
20260905150158 55 104 1.0 5.0 0.00 0.51 0.02 95 1016.7
20260905145658 55 100 2.0 4.0 0.00 0.51 0.02 95 1016.7
20260905145155 55 126 1.0 4.0 0.00 0.51 0.02 95 1016.8
20260905144657 55 100 1.0 3.0 0.00 0.51 0.02 95 1016.7
20260905144154 54 133 1.0 3.0 0.00 0.51 0.02 95 1016.8
20260905143652 54 119 0.0 4.0 0.00 0.51 0.02 96 1016.7
20260905143147 54 95 0.0 4.0 0.00 0.51 0.02 96 1016.7
20260905142652 54 113 0.0 2.0 0.00 0.51 0.02 96 1016.7
20260905142144 54 113 0.0 3.0 0.00 0.51 0.02 96 1016.7
20260905141646 53 112 0.0 3.0 0.00 0.51 0.02 96 1016.6
20260905141145 53 113 1.0 3.0 0.00 0.51 0.02 96 1016.6
20260905140645 53 128 1.0 3.0 0.00 0.51 0.02 96 1016.5
20260905140145 54 159 0.0 2.0 0.00 0.51 0.02 96 1016.5
20260905135643 54 159 0.0 0.0 0.00 0.51 0.02 95 1016.4
20260905135144 54 159 0.0 0.0 0.00 0.51 0.02 95 1016.4
20260905134629 54 159 0.0 0.0 0.00 0.51 0.02 95 1016.4
20260905134120 54 159 0.0 1.0 0.00 0.51 0.02 95 1016.3
20260905133613 54 159 0.0 1.0 0.00 0.51 0.02 95 1016.3
20260905133101 54 159 0.0 0.0 0.00 0.51 0.02 95 1016.3
20260905132600 54 159 0.0 0.0 0.00 0.51 0.02 95 1016.4
20260905132056 54 159 0.0 0.0 0.00 0.51 0.02 95 1016.4
20260905131555 54 159 0.0 0.0 0.01 0.51 0.02 95 1016.4
20260905131050 54 159 0.0 0.0 0.01 0.51 0.02 95 1016.3
20260905130551 54 160 0.0 0.0 0.01 0.51 0.02 95 1016.3
20260905130050 54 160 0.0 0.0 0.01 0.51 0.02 95 1016.3
20260905125812 54 160 0.0 0.0 0.01 0.51 0.02 95 1016.3
20260905125258 54 160 0.0 0.0 0.01 0.51 0.02 95 1016.2
20260905124538 54 160 0.0 0.0 0.02 0.51 0.02 95 1016.2
20260905124020 54 160 0.0 0.0 0.02 0.51 0.02 95 1016.1
20260905123510 54 160 0.0 1.0 0.02 0.51 0.02 95 1016.2
20260905123205 54 160 0.0 1.0 0.02 0.51 0.02 95 1016.1
20260905122433 54 160 0.0 0.0 0.02 0.51 0.02 95 1016.1
20260905121931 54 160 0.0 1.0 0.02 0.52 0.02 95 1016.1
20260905121428 54 160 0.0 2.0 0.01 0.51 0.01 95 1016.0
20260905120917 54 160 0.0 2.0 0.01 0.51 0.01 95 1016.1
20260905120414 54 205 1.0 2.0 0.01 0.51 0.01 95 1016.2
20260905115909 54 247 1.0 2.0 0.01 0.51 0.01 95 1016.1
20260905115347 55 273 1.0 3.0 0.01 0.51 0.01 95 1016.1
20260905114848 55 273 0.0 3.0 0.01 0.51 0.01 95 1016.2
20260905114350 55 281 0.0 3.0 0.00 0.50 0.00 95 1016.2
20260905113849 55 161 0.0 0.0 0.00 0.50 0.00 95 1016.2
20260905113552 55 161 0.0 0.0 0.00 0.50 0.00 94 1016.1
20260905113040 55 161 0.0 0.0 0.00 0.50 0.00 94 1016.1
20260905112307 55 161 0.0 0.0 0.00 0.50 0.00 94 1016.2
20260905111810 55 161 0.0 0.0 0.00 0.50 0.00 94 1016.1
20260905111304 55 161 0.0 1.0 0.00 0.50 0.00 94 1016.1
20260905110743 55 161 0.0 3.0 0.00 0.50 0.00 94 1016.0
20260905110227 55 161 1.0 3.0 0.00 0.50 0.00 94 1016.0
20260905105713 55 149 1.0 3.0 0.00 0.50 0.00 94 1015.9
20260905105356 55 149 2.0 4.0 0.00 0.50 0.00 94 1015.9
20260905104626 55 155 2.0 4.0 0.00 0.50 0.00 94 1016.0
20260905104112 55 147 1.0 4.0 0.00 0.50 0.00 94 1016.0
20260905103608 55 146 1.0 3.0 0.00 0.50 0.00 94 1015.9
20260905103107 55 126 1.0 3.0 0.00 0.50 0.00 94 1016.0
20260905102604 55 136 1.0 4.0 0.00 0.50 0.00 94 1016.0
20260905102101 55 164 1.0 4.0 0.00 0.50 0.00 94 1016.1
20260905101549 55 153 1.0 4.0 0.00 0.50 0.00 94 1016.0
20260905101040 55 124 1.0 2.0 0.00 0.50 0.00 94 1016.0
20260905100541 55 147 1.0 3.0 0.00 0.50 0.00 94 1016.1
20260905100038 54 145 2.0 4.0 0.00 0.50 0.00 94 1016.0
20260905095806 54 155 1.0 4.0 0.00 0.50 0.00 94 1016.1
20260905095039 54 136 1.0 3.0 0.00 0.50 0.00 94 1016.0
20260905094535 54 136 1.0 3.0 0.00 0.50 0.00 93 1016.0
20260905094248 54 135 2.0 3.0 0.00 0.50 0.00 93 1016.0
20260905093529 54 141 2.0 4.0 0.00 0.50 0.00 93 1016.0
20260905093032 55 149 2.0 5.0 0.00 0.50 0.00 93 1016.0
20260905092525 55 135 2.0 5.0 0.00 0.50 0.00 93 1016.1
20260905092025 55 134 2.0 4.0 0.00 0.50 0.00 93 1016.0
20260905091523 55 128 2.0 4.0 0.00 0.50 0.00 93 1016.1
20260905091019 55 129 2.0 4.0 0.00 0.50 0.00 93 1016.0
20260905090520 55 135 2.0 4.0 0.00 0.50 0.00 93 1015.9
20260905090019 55 133 3.0 4.0 0.00 0.50 0.00 93 1015.9
20260905085512 55 145 3.0 5.0 0.00 0.50 0.00 93 1015.9
20260905085009 55 135 3.0 5.0 0.00 0.50 0.00 93 1015.9
20260905084509 55 149 3.0 5.0 0.00 0.50 0.00 93 1016.0
20260905084007 55 155 3.0 5.0 0.00 0.50 0.00 93 1015.9
20260905083505 55 131 3.0 5.0 0.00 0.50 0.00 93 1015.8
20260905083003 54 150 2.0 4.0 0.00 0.50 0.00 93 1015.8
20260905082500 54 143 2.0 4.0 0.00 0.50 0.00 93 1015.7
20260905081957 55 133 3.0 5.0 0.00 0.50 0.00 93 1015.7
20260905081455 55 137 3.0 6.0 0.00 0.50 0.00 93 1015.7
20260905080955 55 135 3.0 6.0 0.00 0.50 0.00 93 1015.6
20260905080453 55 139 2.0 4.0 0.00 0.50 0.00 93 1015.6
20260905075952 55 132 2.0 4.0 0.00 0.51 0.00 93 1015.5
20260905075947 55 137 2.0 4.0 0.00 0.52 0.00 93 1015.6
20260905074946 55 132 2.0 4.0 0.00 0.54 0.00 93 1015.6
20260905074444 55 137 2.0 4.0 0.00 0.56 0.00 93 1015.5
20260905073946 55 121 2.0 4.0 0.00 0.58 0.00 93 1015.5
20260905073705 55 126 2.0 4.0 0.00 0.59 0.00 93 1015.6
20260905072938 55 151 3.0 4.0 0.00 0.60 0.00 93 1015.5
20260905072437 56 139 2.0 4.0 0.00 0.62 0.00 93 1015.5
20260905071939 56 126 2.0 4.0 0.00 0.63 0.00 94 1015.6
20260905071658 56 151 2.0 4.0 0.00 0.64 0.00 94 1015.6
20260905070941 55 133 2.0 4.0 0.00 0.64 0.00 94 1015.4
20260905070434 55 128 2.0 4.0 0.00 0.64 0.00 94 1015.4
20260905065932 55 137 2.0 5.0 0.00 0.64 0.64 94 1015.3
20260905065427 55 135 2.0 5.0 0.00 0.64 0.64 94 1015.5
20260905064919 55 126 1.0 3.0 0.00 0.64 0.64 94 1015.3
20260905064912 55 126 1.0 2.0 0.00 0.64 0.64 94 1015.3
20260905063917 55 126 1.0 2.0 0.00 0.65 0.64 94 1015.3
20260905063414 55 126 0.0 2.0 0.00 0.65 0.64 94 1015.3
20260905062912 55 126 0.0 2.0 0.00 0.65 0.64 94 1015.2
20260905062406 56 126 1.0 2.0 0.00 0.65 0.64 94 1015.3
20260905061905 56 126 1.0 3.0 0.00 0.65 0.64 94 1015.4
20260905061355 56 126 1.0 3.0 0.00 0.65 0.64 94 1015.3
20260905060854 56 126 1.0 3.0 0.00 0.66 0.64 93 1015.3
20260905060348 56 127 2.0 4.0 0.00 0.66 0.64 93 1015.3
20260905055846 56 134 2.0 4.0 0.00 0.66 0.64 93 1015.3
20260905055337 56 124 2.0 4.0 0.00 0.66 0.64 93 1015.4
20260905055102 56 147 2.0 4.0 0.00 0.66 0.64 93 1015.3
20260905054551 56 148 2.0 4.0 0.00 0.66 0.64 93 1015.4
20260905054050 56 137 2.0 4.0 0.00 0.67 0.64 93 1015.3
20260905053334 56 135 3.0 4.0 0.00 0.67 0.64 93 1015.3
20260905052829 56 133 3.0 4.0 0.00 0.67 0.64 93 1015.3
20260905052327 56 131 2.0 4.0 0.00 0.68 0.64 93 1015.3
20260905051824 56 151 2.0 4.0 0.00 0.68 0.64 93 1015.2
20260905051812 56 139 2.0 4.0 0.00 0.69 0.64 93 1015.2
20260905051039 56 122 1.0 4.0 0.00 0.70 0.64 93 1015.2
20260905050316 56 142 1.0 3.0 0.00 0.70 0.64 93 1015.1
20260905045816 56 138 1.0 3.0 0.00 0.71 0.64 93 1015.0
20260905045535 56 138 1.0 3.0 0.00 0.71 0.64 93 1015.1
20260905044816 56 139 1.0 3.0 0.00 0.72 0.64 93 1015.0
20260905044540 56 138 1.0 3.0 0.00 0.72 0.64 93 1015.1
20260905043806 56 151 1.0 3.0 0.00 0.72 0.64 93 1015.0
20260905043522 57 151 1.0 3.0 0.00 0.72 0.64 93 1015.0
20260905042748 57 126 1.0 4.0 0.00 0.72 0.64 92 1015.0
20260905042243 57 108 1.0 6.0 0.00 0.72 0.64 93 1014.9
20260905041740 57 120 2.0 6.0 0.00 0.72 0.64 93 1014.8
20260905041239 57 118 1.0 4.0 0.00 0.72 0.64 93 1014.7
20260905040738 57 132 0.0 1.0 0.00 0.72 0.64 93 1014.7
20260905040233 57 132 1.0 1.0 0.00 0.72 0.64 93 1014.7
20260905035732 57 132 1.0 1.0 0.00 0.72 0.64 93 1014.7
20260905035230 57 132 1.0 1.0 0.00 0.72 0.64 93 1014.7
20260905034731 57 132 1.0 1.0 0.00 0.72 0.64 93 1014.6
20260905034229 57 116 1.0 1.0 0.00 0.72 0.64 93 1014.6
20260905033727 57 126 1.0 1.0 0.00 0.72 0.64 93 1014.5
20260905033231 57 122 1.0 1.0 0.00 0.72 0.64 93 1014.4
20260905032715 57 122 1.0 1.0 0.00 0.72 0.64 93 1014.2
20260905032444 57 122 1.0 1.0 0.00 0.72 0.64 93 1014.3
20260905031717 57 122 1.0 1.0 0.00 0.73 0.64 93 1014.2
20260905031214 57 122 0.0 1.0 0.00 0.73 0.64 93 1014.1
20260905031201 57 104 0.0 1.0 0.01 0.73 0.64 93 1014.0
20260905030428 57 96 1.0 1.0 0.01 0.73 0.64 93 1014.1
20260905025700 57 135 1.0 1.0 0.01 0.73 0.64 93 1014.0
20260905025435 57 135 0.0 1.0 0.01 0.73 0.64 92 1014.0
20260905024647 57 135 0.0 1.0 0.02 0.73 0.64 92 1014.0
20260905024137 57 135 1.0 1.0 0.02 0.73 0.64 92 1014.0
20260905023626 57 135 1.0 1.0 0.02 0.73 0.64 92 1013.9
20260905023109 57 135 1.0 1.0 0.03 0.73 0.64 91 1013.8
20260905022606 57 133 1.0 1.0 0.03 0.73 0.64 91 1013.8
20260905022324 58 144 1.0 1.0 0.03 0.73 0.64 91 1013.8
20260905021602 58 145 1.0 1.0 0.03 0.73 0.64 92 1013.8
20260905021101 58 134 1.0 1.0 0.03 0.73 0.64 92 1013.8
20260905020823 58 129 1.0 1.0 0.02 0.72 0.63 92 1013.8
20260905020313 58 127 1.0 1.0 0.02 0.72 0.63 92 1013.8
20260905015556 58 149 1.0 1.0 0.02 0.72 0.63 92 1013.6
20260905015054 58 139 1.0 1.0 0.01 0.71 0.63 92 1013.5
20260905014550 58 140 1.0 1.0 0.01 0.71 0.62 93 1013.6
20260905014050 59 135 1.0 1.0 0.01 0.71 0.62 93 1013.5
20260905013807 59 123 1.0 1.0 0.01 0.71 0.62 93 1013.5
20260905013313 59 128 1.0 1.0 0.01 0.70 0.62 93 1013.4
20260905012546 59 127 1.0 1.0 0.01 0.71 0.61 92 1013.4
20260905012047 59 94 1.0 1.0 0.01 0.71 0.61 92 1013.4
20260905011546 59 131 1.0 1.0 0.02 0.73 0.61 92 1013.3
20260905011044 59 147 1.0 1.0 0.02 0.74 0.61 92 1013.3
20260905010807 59 101 1.0 1.0 0.02 0.75 0.61 92 1013.4
20260905010041 59 131 1.0 1.0 0.03 0.75 0.61 92 1013.3
20260905005541 59 116 1.0 1.0 0.03 0.77 0.61 92 1013.3
20260905005037 59 124 1.0 1.0 0.03 0.78 0.61 92 1013.3
20260905004532 59 133 1.0 1.0 0.03 0.78 0.61 92 1013.1
20260905004032 59 117 1.0 1.0 0.03 0.79 0.61 92 1013.1
20260905003531 58 118 1.0 1.0 0.04 0.79 0.61 92 1013.2
20260905003032 58 126 0.0 1.0 0.03 0.78 0.60 92 1013.1
20260905002531 58 126 0.0 1.0 0.04 0.78 0.60 92 1012.9
20260905002032 58 120 1.0 1.0 0.04 0.77 0.60 92 1013.0
20260905001533 58 137 1.0 1.0 0.05 0.77 0.59 93 1012.8
20260905001031 58 132 1.0 1.0 0.07 0.77 0.59 92 1012.8
20260905000531 58 157 0.0 1.0 0.08 0.77 0.59 92 1012.8
20260905000033 58 130 0.0 1.0 0.08 0.76 0.58 92 1012.8
20260904235530 58 133 0.0 1.0 0.08 0.76 0.58 92 1012.8
20260904235025 58 127 0.0 1.0 0.08 0.76 0.58 93 1012.8
20260904234757 58 132 1.0 1.0 0.08 0.76 0.58 92 1012.9
20260904234026 58 131 1.0 1.0 0.09 0.76 0.58 92 1012.8
20260904233521 58 124 1.0 1.0 0.08 0.75 0.58 93 1012.8
20260904233022 58 122 1.0 1.0 0.08 0.75 0.57 92 1012.8
20260904232512 58 137 1.0 1.0 0.07 0.74 0.56 92 1012.9
20260904232015 58 139 1.0 1.0 0.07 0.73 0.55 92 1012.8
20260904231512 58 151 1.0 1.0 0.06 0.71 0.53 92 1012.8
20260904231216 58 128 1.0 1.0 0.06 0.69 0.51 92 1012.8
20260904231059 58 157 1.0 1.0 0.06 0.70 0.52 91 1012.8
20260904230443 58 184 1.0 1.0 0.06 0.68 0.50 92 1012.7
20260904225500 58 195 1.0 1.0 0.06 0.68 0.50 91 1012.7
20260904224947 58 181 1.0 1.0 0.07 0.68 0.50 91 1012.7
20260904224450 58 174 1.0 1.0 0.07 0.68 0.50 91 1012.6
20260904223944 58 133 1.0 1.0 0.07 0.67 0.49 91 1012.6
20260904223444 58 150 1.0 1.0 0.09 0.67 0.49 91 1012.5
20260904222944 58 163 1.0 1.0 0.11 0.67 0.49 91 1012.6
20260904222435 58 155 1.0 1.0 0.12 0.67 0.49 91 1012.6
20260904221933 58 139 1.0 1.0 0.12 0.66 0.48 91 1012.6
20260904221700 59 164 1.0 1.0 0.12 0.65 0.47 92 1012.6
20260904220935 59 174 1.0 1.0 0.11 0.64 0.46 92 1012.6
20260904220433 58 147 1.0 1.0 0.11 0.63 0.45 92 1012.4
20260904215934 58 188 1.0 1.0 0.10 0.62 0.44 93 1012.5
20260904215427 58 141 0.0 1.0 0.11 0.67 0.44 93 1012.4
20260904214917 58 224 0.0 1.0 0.11 0.68 0.43 93 1012.5
20260904214416 58 227 1.0 1.0 0.12 0.76 0.43 93 1012.5
20260904213906 58 234 1.0 1.0 0.11 0.78 0.42 92 1012.5
20260904213350 58 197 1.0 2.0 0.10 0.77 0.40 92 1012.6
20260904213111 59 243 1.0 3.0 0.09 0.75 0.38 93 1012.5
20260904212608 59 237 2.0 3.0 0.09 0.74 0.37 92 1012.4
20260904211853 59 239 1.0 3.0 0.08 0.73 0.36 92 1012.3
20260904211822 59 237 1.0 3.0 0.08 0.72 0.35 92 1012.2
20260904210840 59 238 1.0 3.0 0.08 0.72 0.35 92 1012.3
20260904210605 59 262 0.0 1.0 0.07 0.71 0.34 92 1012.2
20260904205842 59 262 0.0 3.0 0.07 0.71 0.34 92 1012.2
20260904205334 59 263 1.0 3.0 0.07 0.70 0.33 91 1012.2
20260904205055 59 262 1.0 2.0 0.06 0.69 0.33 91 1012.1
20260904204334 59 238 0.0 1.0 0.05 0.68 0.32 91 1012.0
20260904203832 59 242 0.0 1.0 0.05 0.68 0.31 91 1012.0
20260904203328 59 242 1.0 3.0 0.04 0.67 0.30 90 1011.9
20260904202820 59 242 1.0 3.0 0.03 0.66 0.29 89 1011.9
20260904202753 60 245 1.0 3.0 0.02 0.65 0.28 90 1011.9
20260904202044 60 195 1.0 4.0 0.02 0.65 0.28 89 1011.9
20260904201314 60 193 1.0 4.0 0.01 0.64 0.27 87 1011.9
20260904200814 60 195 1.0 4.0 0.01 0.64 0.27 88 1012.0